TIME,�g��[���C[MJ/h],����[MJ/h],�Ɩ�[MJ/h],�~�[[MJ/h],�①��[MJ/h],��y���[MJ/h],�Ǝ��q��[MJ/h],���̑��s��[MJ/h],�u�����`������[MJ/h]
2003/7/1 0:00,0.108,0,0.04032,0.02304,0.0576,0.21744,0.03456,0,0.07488
2003/7/1 0:15,0.108,0,0.04032,0.02304,0.47232,0.216,0,0,0.0432
2003/7/1 0:30,0.10656,0,0.0432,0.02592,0.46512,0.216,0.036,0,0.03888
2003/7/1 0:45,0.108,0,0.0432,0.03312,0.45216,0.216,0,0,0.0432
2003/7/1 1:00,0.10368,0,0.04896,0.02592,0.21744,0.216,0.03312,0,0.06192
2003/7/1 1:15,0.10368,0,0.0432,0.0216,0.04752,0.216,0.02736,0,0.0792
2003/7/1 1:30,0.108,0,0.0432,0.0288,0.46368,0.216,0,0,0.0432
2003/7/1 1:45,0.1008,0,0.0432,0.03024,0.4608,0.216,0.03312,0,0.04896
2003/7/1 2:00,0.108,0,0.0432,0.03168,0.45216,0.216,0,0,0.0432
2003/7/1 2:15,0.108,0,0.04752,0.0216,0.07776,0.216,0.03744,0,0.07056
2003/7/1 2:30,0.108,0,0.0432,0.02448,0.18864,0.216,0,0,0.06912
2003/7/1 2:45,0.108,0,0.0432,0.02736,0.46944,0.216,0.036,0,0.03888
2003/7/1 3:00,0.1008,0,0.05328,0.03168,0.45504,0.216,0.03456,0,0.03744
2003/7/1 3:15,0.108,0,0.0432,0.02592,0.32976,0.216,0,0,0.05472
2003/7/1 3:30,0.108,0,0.04752,0.0216,0,0.216,0.03168,0,0.08208
2003/7/1 3:45,0.108,0,0.04176,0.02736,0.396,0.216,0,0,0.05616
2003/7/1 4:00,0.108,0,0.0432,0.0288,0.4608,0.216,0.036,0,0.03888
2003/7/1 4:15,0.108,0,0.0432,0.03024,0.4536,0.216,0,0,0.0432
2003/7/1 4:30,0.108,0,0.0432,0.0216,0.0648,0.216,0.03888,0,0.07344
2003/7/1 4:45,0.108,0,0.0432,0.02592,0.20592,0.216,0,0,0.0576
2003/7/1 5:00,0.10512,0,0.05184,0.02592,0.47088,0.216,0.03168,0,0.03888
2003/7/1 5:15,0.10944,0,0.0432,0.02736,0.45216,0.216,0.03456,0,0.03888
2003/7/1 5:30,0.108,0,0.0432,0.02304,0.216,0.216,0,0,0.06912
2003/7/1 5:45,0.108,0,0.04752,0.0216,0.04752,0.216,0.03168,0,0.07776
2003/7/1 6:00,0.108,0,0.14112,0.03888,0.4536,0.21744,0,0,0.036
2003/7/1 6:15,0.11952,0,0.29376,0.53424,0.48816,0.216,0.03312,0,-0.05616
2003/7/1 6:30,0.20016,0,0.3384,1.45728,0.4752,0.216,0.46656,0,-0.02736
2003/7/1 6:45,0.2808,0,0.33984,2.00016,0.52848,0.21744,0.49536,0,-0.14832
2003/7/1 7:00,0.26928,0,0.65808,0.80352,0.49104,0.22176,0.71136,0,-0.07344
2003/7/1 7:15,0.28224,0,0.70416,0.65232,0.47808,0.216,0.48096,0,-0.0576
2003/7/1 7:30,0.21168,0,1.69488,0.30384,0.48384,0.216,0.036,0,-0.18288
2003/7/1 7:45,0.108,0,0.65232,0.37584,0.47376,0.216,0.16704,0,-0.11952
2003/7/1 8:00,0.12096,0,0.32976,0.06336,0.46656,0.216,0.03456,0,-0.02016
2003/7/1 8:15,0.1008,0,0.0864,0.02592,0.41904,0.216,0.03168,0,0.036
2003/7/1 8:30,0.108,0,0.0432,0.0216,0,0.216,0,0,0.0864
2003/7/1 8:45,0.1008,0,0.04896,0.02448,0.3312,0.216,0.03744,0,0.0576
2003/7/1 9:00,0.108,0,0.0432,0.0216,0.4752,0.216,0,0,0.04032
2003/7/1 9:15,0.1008,0,0.05472,0.02448,0.468,0.216,0.03168,0,0.036
2003/7/1 9:30,0.108,0,0.04608,0.03312,0.45216,0.216,0.03312,0,0.03888
2003/7/1 9:45,0.108,0,0.0432,0.03168,0.39024,0.216,0,0,0.04896
2003/7/1 10:00,0.10224,0,0.04896,0.0216,0,0.216,0.03744,0,0.0792
2003/7/1 10:15,0.108,0,0.0432,0.02448,0.33552,0.216,0,0,0.04608
2003/7/1 10:30,0.108,0,0.0432,0.0216,0.47232,0.216,0.036,0,0.036
2003/7/1 10:45,0.108,0,0.0432,0.02592,0.46944,0.216,0,0,0.0432
2003/7/1 11:00,0.1008,0,0.0432,0.03024,0.45072,0.216,0.03312,0,0.04896
2003/7/1 11:15,0.108,0,0.04464,0.0216,0,0.216,0.03456,0,0.08208
2003/7/1 11:30,0.108,0,0.0432,0.02304,0.28944,0.216,0,0,0.06192
2003/7/1 11:45,0.108,0,0.05184,0.02448,0.46944,0.21744,0.03744,0,0.03168
2003/7/1 12:00,0.108,0,0.0432,0.03312,0.4536,0.21744,0,0,0.0432
2003/7/1 12:15,0.10512,0,0.04752,0.02448,0.53424,0.216,0.03456,0,0.0072
2003/7/1 12:30,0.108,0,0.0432,0.0216,0.5616,0.216,0,0,0
2003/7/1 12:45,0.1008,0,0.0432,0.03024,0.47232,0.216,0.03168,0,0.02016
2003/7/1 13:00,0.108,0,0.0432,0.03024,0.55296,0.216,0.03312,0,0.01872
2003/7/1 13:15,0.108,0,0.0432,0.02736,0.52704,0.216,0,0,0.02736
2003/7/1 13:30,0.108,0,0.0432,0.0216,0.5184,0.216,0.036,0,0.02736
2003/7/1 13:45,0.108,0,0.0432,0.03024,0.4968,0.216,0,0,0.036
2003/7/1 14:00,0.1008,0,0.05328,0.02736,0.48816,0.216,0.036,0,0.03456
2003/7/1 14:15,0.108,0,0.0432,0.03168,0.48096,0.216,0,0,0.0432
2003/7/1 14:30,0.10368,0,0.0432,0.02448,0.47088,0.216,0.0288,0,0.04032
2003/7/1 14:45,0.108,0,0.0432,0.02304,0.47232,0.216,0,0,0.0432
2003/7/1 15:00,0.108,0,0.0432,0.02592,0.46224,0.216,0.03744,0,0.03888
2003/7/1 15:15,0.108,0,0.0432,0.03024,0.2808,0.216,0,0,0.06048
2003/7/1 15:30,0.10944,0,0.0432,0.0216,0,0.216,0.03456,0,0.08208
2003/7/1 15:45,0.1008,0,0.0576,0.02304,0.45792,0.216,0.02304,0,0.036
2003/7/1 16:00,0.108,0,0.36432,0.02736,0.46512,0.216,0.0072,0,-0.01152
2003/7/1 16:15,0.108,0,0.52128,0.03312,0.45648,0.216,0.03456,0,-0.03312
2003/7/1 16:30,0.108,0,0.38448,0.03312,0.45072,0.22032,0,0,-0.00864
2003/7/1 16:45,0.108,0,0.6768,0.0216,0.01728,0.21888,0.036,0,0.01728
2003/7/1 17:00,0.108,0,0.5472,0.02304,0.26928,0.216,0,0,0.0144
2003/7/1 17:15,0.1008,0,0.50112,0.02592,0.468,0.22032,0.036,0,-0.01728
2003/7/1 17:30,0.2808,0,0.576,0.51984,0.47232,0.3312,0,0,-0.02736
2003/7/1 17:45,0.2016,0,1.17216,1.16496,0.45504,0.45216,0.036,0,-0.0504
2003/7/1 18:00,0.18864,0,1.66752,0.63504,0.1368,0.43632,0,0,-0.16416
2003/7/1 18:15,0.18288,0,1.692,0.09072,0.13824,0.43488,0.036,0,-0.13104
2003/7/1 18:30,0.28224,0,2.00304,0.39744,0.47808,0.3888,0,0,-0.1944
2003/7/1 18:45,0.28224,0,2.1312,0.02592,0.46224,0.3888,0.03456,0,-0.18
2003/7/1 19:00,0.28224,0,2.18736,0.02304,0.46656,0.39888,0,0,-0.18576
2003/7/1 19:15,0.2808,0,2.28528,0.02736,0.35136,0.45072,0.03312,0,-0.19728
2003/7/1 19:30,0.2808,0,2.3904,0.0216,0,0.43776,0,0,-0.13536
2003/7/1 19:45,0.28224,0,2.5056,0.0288,0.3744,0.432,0.03024,0,-0.18144
2003/7/1 20:00,0.28224,0,2.53296,0.0288,0.45936,0.40032,0.05904,0,-0.19728
2003/7/1 20:15,0.28224,0,2.65392,0.03168,0.45216,0.37728,0,0,-0.2016
2003/7/1 20:30,0.14256,0,2.65104,0.02592,0.24768,0.38016,0.03168,0,-0.1728
2003/7/1 20:45,0.108,0,2.47824,0.0216,0.02448,0.4032,0.03456,0,-0.18864
2003/7/1 21:00,0.1008,0,2.50992,0.02448,0.47232,0.58896,0.27648,0,-0.29664
2003/7/1 21:15,0.036,0,2.56032,0.02592,0.4608,0.45648,0.03168,0,-0.22464
2003/7/1 21:30,0.06912,0,2.7792,0.03744,0.45648,0.50976,0.03312,0,-0.27504
2003/7/1 21:45,0.108,0,2.69136,0.02736,0.23904,0.50544,0.05616,0,-0.22896
2003/7/1 22:00,0.10224,0,2.66976,0.02304,0.02736,0.49824,1.0872,0,-0.33984
2003/7/1 22:15,0.108,0,3.14496,0.02448,0.46944,0.45792,0.03312,0,-0.28656
2003/7/1 22:30,0.108,0,3.11184,0.02448,0.46944,0.46512,0,0,-0.29088
2003/7/1 22:45,0.24048,0,2.95056,0.02448,0.46512,0.432,0.03312,0,-0.28944
2003/7/1 23:00,0.10656,0,2.38464,0.02592,0.46656,0.36144,0.03744,0,-0.19872
2003/7/1 23:15,0.108,0,1.22112,0.02304,0.04752,0.4104,0,0,-0.05328
2003/7/1 23:30,0.108,0,0.07344,0.02592,0.21168,0.3384,0.036,0,0.04032
2003/7/1 23:45,0.108,0,0.06192,0.02592,0.46656,0.216,0,0,0.0432
2003/7/2 0:00,0.108,0,0.0432,0.0288,0.45072,0.216,0.03456,0,0.0432
2003/7/2 0:15,0.10368,0,0.0432,0.03024,0.27792,0.216,0.03744,0,0.06768
2003/7/2 0:30,0.108,0,0.0432,0.0216,0,0.216,0,0,0.09072
2003/7/2 0:45,0.10944,0,0.0432,0.02736,0.44784,0.216,0.03456,0,0.04608
2003/7/2 1:00,0.108,0,0.0432,0.02592,0.45216,0.216,0,0,0.04608
2003/7/2 1:15,0.10224,0,0.0432,0.0288,0.44784,0.216,0.0288,0,0.04608
2003/7/2 1:30,0.108,0,0.0432,0.0216,0.01872,0.216,0.03456,0,0.09216
2003/7/2 1:45,0.108,0,0.0432,0.02736,0.22752,0.216,0,0,0.06912
2003/7/2 2:00,0.108,0,0.04752,0.03168,0.45504,0.216,0.03024,0,0.04032
2003/7/2 2:15,0.108,0,0.0432,0.0288,0.44496,0.21744,0,0,0.04608
2003/7/2 2:30,0.10944,0,0.0432,0.02304,0.16848,0.216,0.03024,0,0.07056
2003/7/2 2:45,0.10512,0,0.0432,0.02304,0.08352,0.216,0.03744,0,0.08208
2003/7/2 3:00,0.108,0,0.0432,0.036,0.4536,0.216,0,0,0.04896
2003/7/2 3:15,0.108,0,0.0432,0.0288,0.4464,0.216,0.036,0,0.04752
2003/7/2 3:30,0.108,0,0.0432,0.0216,0.03024,0.216,0,0,0.0936
2003/7/2 3:45,0.10944,0,0.0432,0.02448,0.22896,0.216,0.03456,0,0.06624
2003/7/2 4:00,0.108,0,0.0432,0.03312,0.4536,0.216,0,0,0.05616
2003/7/2 4:15,0.108,0,0.04464,0.02448,0.3672,0.216,0.03312,0,0.0576
2003/7/2 4:30,0.10368,0,0.0504,0.0216,0,0.216,0.03456,0,0.0936
2003/7/2 4:45,0.108,0,0.0432,0.0288,0.33408,0.216,0,0,0.07056
2003/7/2 5:00,0.10656,0,0.05328,0.0288,0.4536,0.216,0.03744,0,0.05184
2003/7/2 5:15,0.108,0,0.11376,1.61568,0.49536,0.216,0,0,0.06768
2003/7/2 5:30,0.108,0,0.06624,0.80496,0.5616,0.216,0.03312,0,0.01728
2003/7/2 5:45,0.108,0,0.05904,0.16704,0.5616,0.216,0,0,0.00576
2003/7/2 6:00,0.1008,0,0.108,0.07632,0.468,0.216,0.03888,0,0.04896
2003/7/2 6:15,0.1008,0,0.2736,0.94032,0.54864,0.216,0.01296,0,-0.10656
2003/7/2 6:30,0.20304,0,0.40176,0.58752,0.52848,0.216,0.02016,0,0.00864
2003/7/2 6:45,0.28224,0,0.42624,1.48608,0.54288,0.21744,0.71568,0,-0.1368
2003/7/2 7:00,0.25776,0,0.3672,0.70272,0.50832,0.22176,0.59904,0,-0.02736
2003/7/2 7:15,0.14256,0,0.37296,0.03456,0.47952,0.216,0.7272,0,-0.0432
2003/7/2 7:30,0.108,0,0.74448,0.02448,0.4824,0.216,0.216,0,-0.02016
2003/7/2 7:45,0.11232,0,0.6768,0.4752,0.47088,0.216,0.22896,0,-0.09216
2003/7/2 8:00,0.1152,0,0.10368,0.35712,0.468,0.24192,0.03312,0,-0.036
2003/7/2 8:15,0.39744,0,0.07344,0.0648,0.4608,0.2592,0.03312,0,-0.00576
2003/7/2 8:30,2.12688,0,0.1584,0.02736,0.44928,0.24048,0.48672,0,-0.06048
2003/7/2 8:45,0.1008,0,0.11808,0.02592,0.17136,0.216,1.15776,0,-0.02304
2003/7/2 9:00,0.10512,0,0.11376,0.02448,0.08784,0.216,0.03456,0,0.0648
2003/7/2 9:15,0.1008,0,0.09792,0.02448,0.47232,0.216,0.03312,0,0.03456
2003/7/2 9:30,0.108,0,0.10224,0.03024,0.4536,0.216,0.03312,0,0.03312
2003/7/2 9:45,0.108,0,0.09792,0.02736,0.32256,0.21744,0,0,0.04896
2003/7/2 10:00,0.10656,0,0.09648,0.0216,0,0.216,0.03888,0,0.07776
2003/7/2 10:15,0.108,0,0.10224,0.0288,0.41472,0.216,0.03168,0,0.03888
2003/7/2 10:30,0.108,0,0.09792,0.03312,0.45648,0.216,0,0,0.03744
2003/7/2 10:45,0.1008,0,0.09648,0.02736,0.39024,0.216,0.03312,0,0.05184
2003/7/2 11:00,0.10512,0,0.08064,0.0216,0,0.216,0.02736,0,0.07488
2003/7/2 11:15,0.108,0,0.07776,0.02736,0.31392,0.216,0.00432,0,0.05616
2003/7/2 11:30,0.1008,0,0.09936,0.0288,0.45792,0.216,0.03312,0,0.03024
2003/7/2 11:45,0.108,0,0.1008,0.03312,0.4464,0.21744,0.03312,0,0.03312
2003/7/2 12:00,0.108,0,0.09792,0.0216,0.0216,0.21744,0,0,0.07776
2003/7/2 12:15,0.10512,0,0.10656,0.02592,0.22896,0.216,0.03024,0,0.05472
2003/7/2 12:30,0.108,0,0.09648,0.03168,0.45072,0.216,0.03312,0,0.03024
2003/7/2 12:45,0.108,0,0.09504,0.02448,0.44784,0.216,0,0,0.03744
2003/7/2 13:00,0.108,0,0.08208,0.02448,0.1152,0.216,0.03456,0,0.06912
2003/7/2 13:15,0.108,0,0.06336,0.02448,0.13248,0.21744,0,0,0.072
2003/7/2 13:30,0.10944,0,0.09072,0.036,0.45504,0.216,0.03456,0,0.03312
2003/7/2 13:45,0.108,0,0.1008,0.02736,0.44928,0.216,0.03312,0,0.03168
2003/7/2 14:00,0.108,0,0.09648,0.02304,0.2016,0.216,0,0,0.06192
2003/7/2 14:15,0.108,0,0.09936,0.0216,0.05328,0.216,0.03312,0,0.06912
2003/7/2 14:30,0.108,0,0.09504,0.03744,0.4536,0.216,0,0,0.036
2003/7/2 14:45,0.108,0,0.07632,0.0288,0.45216,0.216,0.03312,0,0.036
2003/7/2 15:00,0.108,0,0.06768,0.02592,0.29376,0.216,0.03312,0,0.05328
2003/7/2 15:15,0.108,0,0.09504,0.0216,0,0.216,0,0,0.0792
2003/7/2 15:30,0.108,0,0.14976,0.03312,0.42192,0.216,0.03312,0,0.02592
2003/7/2 15:45,0.108,0,0.29664,0.29664,0.4536,0.216,0,0,0.03888
2003/7/2 16:00,0.108,0,0.45216,1.87056,0.41184,0.216,0.03456,0,-0.03456
2003/7/2 16:15,0.11952,0,0.47952,0.34992,0,0.21744,0.03456,0,0.04608
2003/7/2 16:30,0.108,0,0.70416,0.12528,0.31248,0.216,0,0,0
2003/7/2 16:45,0.1008,0,0.75888,0.05904,0.46944,0.216,0.03312,0,-0.0216
2003/7/2 17:00,0.108,0,0.56736,0.02448,0.47232,0.23616,0,0,-0.01296
2003/7/2 17:15,0.10224,0,0.3312,0.0288,0.45936,0.4536,0.03312,0,-0.04464
2003/7/2 17:30,0.108,0,0.324,0.02736,0.2592,0.4536,0,0,-0.02016
2003/7/2 17:45,0.108,0,0.32544,0.0216,0.01008,0.4536,0.03312,0,-0.00432
2003/7/2 18:00,0.108,0,0.8064,0.02592,0.46944,0.2736,0.03456,0,-0.08496
2003/7/2 18:15,0.108,0,0.66816,0.03024,0.4608,0.216,0,0,-0.04608
2003/7/2 18:30,0.108,0,0.40896,0.02304,0.44928,0.216,0.03168,0,-0.00864
2003/7/2 18:45,0.108,0,1.0296,0.03312,0.38736,0.216,0,0,-0.0144
2003/7/2 19:00,0.108,0,1.13616,0.0216,0,0.216,0.03168,0,0.01584
2003/7/2 19:15,0.108,0,1.5912,0.02304,0.39888,0.216,0.07632,0,-0.10368
2003/7/2 19:30,0.108,0,1.69632,0.03312,0.45648,0.216,0.03456,0,-0.15408
2003/7/2 19:45,0.1656,0,2.05344,0.02736,0.45792,0.31104,0.03168,0,-0.20592
2003/7/2 20:00,0.14832,0,2.09376,0.03168,0.44784,0.45072,0,0,-0.19296
2003/7/2 20:15,0.11376,0,1.33488,0.0216,0.08064,0.39312,0.03456,0,-0.03456
2003/7/2 20:30,0.108,0,1.67328,0.0216,0.16992,0.216,0,0,-0.06048
2003/7/2 20:45,0.1224,0,2.20896,0.02592,0.46944,0.216,0.03456,0,-0.15696
2003/7/2 21:00,0.12096,0,2.30112,0.0288,0.468,0.216,0.03312,0,-0.17856
2003/7/2 21:15,0.12384,0,2.25792,0.02592,0.46368,0.21744,0,0,-0.1584
2003/7/2 21:30,0.11232,0,2.79216,0.03456,0.45504,0.21744,0.03168,0,-0.21168
2003/7/2 21:45,0.108,0,2.86992,0.03312,0.44784,0.216,0.03456,0,-0.22032
2003/7/2 22:00,0.108,0,2.77056,0.02736,0.44784,0.216,0,0,-0.21024
2003/7/2 22:15,0.108,0,2.77056,0.03888,0.54432,0.24048,0.03312,0,-0.3024
2003/7/2 22:30,0.108,0,2.124,0.3816,0.53856,0.23184,0,0,-0.28368
2003/7/2 22:45,0.108,0,2.56608,0.33264,0.46224,0.22608,0.03312,0,-0.31968
2003/7/2 23:00,0.108,0,2.09952,0.34128,0.55008,0.22176,1.15632,0,-0.42768
2003/7/2 23:15,0.108,0,1.34208,0.02736,0.52848,0.21888,0.06912,0,-0.1296
2003/7/2 23:30,0.108,0,1.03536,0.0216,0.5184,0.216,0.036,0,-0.09648
2003/7/2 23:45,0.108,0,1.18656,0.02448,0.49968,0.216,0,0,-0.13104
2003/7/3 0:00,0.1008,0,0.89136,0.03168,0.4824,0.22032,0.03024,0,-0.0864
2003/7/3 0:15,0.1008,0,0.0648,0.02736,0.47232,0.26784,0.03312,0,0.03024
2003/7/3 0:30,0.108,0,0.04176,0.02736,0.46944,0.216,0,0,0.06048
2003/7/3 0:45,0.10944,0,0.0432,0.036,0.45792,0.216,0.03312,0,0.0504
2003/7/3 1:00,0.10944,0,0.0432,0.0288,0.45504,0.216,0.03456,0,0.04896
2003/7/3 1:15,0.108,0,0.0432,0.03312,0.45216,0.216,0,0,0.05328
2003/7/3 1:30,0.10368,0,0.04608,0.02448,0.44928,0.216,0.036,0,0.0504
2003/7/3 1:45,0.108,0,0.0432,0.02592,0.44784,0.216,0,0,0.05184
2003/7/3 2:00,0.1008,0,0.0432,0.02304,0.07056,0.216,0.03312,0,0.10512
2003/7/3 2:15,0.108,0,0.0432,0.02448,0.18288,0.21744,0.03456,0,0.0792
2003/7/3 2:30,0.108,0,0.0432,0.02736,0.45216,0.216,0,0,0.06048
2003/7/3 2:45,0.1008,0,0.0432,0.02736,0.44784,0.216,0.03168,0,0.0576
2003/7/3 3:00,0.10944,0,0.0432,0.02448,0.44784,0.216,0.03456,0,0.0504
2003/7/3 3:15,0.108,0,0.0432,0.02448,0.13536,0.216,0,0,0.08928
2003/7/3 3:30,0.1008,0,0.05328,0.02448,0.10656,0.216,0.03312,0,0.08928
2003/7/3 3:45,0.108,0,0.0432,0.02304,0.45072,0.216,0,0,0.05904
2003/7/3 4:00,0.108,0,0.0432,0.0288,0.44208,0.216,0.036,0,0.05616
2003/7/3 4:15,0.108,0,0.0864,0.02448,0.35568,0.216,0.03024,0,0.0576
2003/7/3 4:30,0.108,0,0.0792,0.0216,0,0.216,0,0,0.10512
2003/7/3 4:45,0.1008,0,0.0432,0.02592,0.32112,0.216,0.03312,0,0.08208
2003/7/3 5:00,0.108,0,0.04464,0.02592,0.4464,0.216,0.03312,0,0.05328
2003/7/3 5:15,0.108,0,0.05472,1.48896,0.31392,0.216,0,0,0.17568
2003/7/3 5:30,0.1008,0,0.07632,0.72864,0,0.216,0.03888,0,0.0576
2003/7/3 5:45,0.108,0,0.04896,0.16416,0.36432,0.216,0,0,0.06912
2003/7/3 6:00,0.108,0,0.1872,0.08496,0.44496,0.21888,0.03024,0,0.05328
2003/7/3 6:15,0.25056,0,0.34416,0.37008,0.468,0.216,0.03168,0,0.00288
2003/7/3 6:30,0.28656,0,0.35856,0.0576,0.45792,0.216,0.01008,0,0.05328
2003/7/3 6:45,0.26928,0,0.71136,0.77328,0.4536,0.2304,0.96768,0,-0.10368
2003/7/3 7:00,0.2808,0,0.73008,0.87984,0.17856,0.22176,0.396,0,-0.01872
2003/7/3 7:15,0.2808,0,0.7128,0.0216,0.09504,0.21744,0.28368,0,0.01872
2003/7/3 7:30,0.2808,0,0.70848,0.02304,0.47088,0.216,0.38736,0,-0.03888
2003/7/3 7:45,0.21456,0,0.60912,0.03312,0.45216,0.216,0.03312,0,0.0216
2003/7/3 8:00,0.11376,0,0.5904,0.3024,0.36432,0.27072,0.0144,0,-0.03456
2003/7/3 8:15,0.11664,0,0.12672,0.3744,0.0144,0.22608,0.03456,0,0
2003/7/3 8:30,0.11088,0,0.04464,0.2016,0.35712,0.216,0.03456,0,0.02448
2003/7/3 8:45,0.10944,0,0.0432,0.03456,0.44784,0.216,0.0288,0,0.04032
2003/7/3 9:00,0.12528,0,0.0432,0.03024,0.44928,0.216,0,0,0.0432
2003/7/3 9:15,0.12528,0,0.0432,0.02304,0.04032,0.216,0.03744,0,0.0792
2003/7/3 9:30,0.11808,0,0.0432,0.02592,0.22752,0.216,0.036,0,0.06048
2003/7/3 9:45,0.11664,0,0.0432,0.03456,0.45072,0.216,0,0,0.0432
2003/7/3 10:00,0.1152,0,0.04464,0.02448,0.34992,0.216,0.036,0,0.0504
2003/7/3 10:15,0.12096,0,0.0432,0.0216,0,0.216,0,0,0.0864
2003/7/3 10:30,0.11808,0,0.04752,0.03024,0.3816,0.216,0.03168,0,0.04608
2003/7/3 10:45,0.11664,0,0.04608,0.02736,0.45216,0.216,0.03456,0,0.03888
2003/7/3 11:00,0.11664,0,0.0432,0.02448,0.22464,0.216,0,0,0.0648
2003/7/3 11:15,0.11376,0,0.05472,0.0216,0.06192,0.216,0.03024,0,0.06768
2003/7/3 11:30,0.11808,0,0.05472,0.03456,0.45648,0.216,0.036,0,0.02592
2003/7/3 11:45,0.11952,0,0.0432,0.02736,0.44784,0.21744,0,0,0.0432
2003/7/3 12:00,0.11952,0,0.04464,0.02448,0.12528,0.21744,0.03456,0,0.06192
2003/7/3 12:15,0.1224,0,0.04464,0.02304,0.15696,0.216,0.03168,0,0.05616
2003/7/3 12:30,0.11952,0,0.0432,0.03456,0.45648,0.216,0,0,0.0432
2003/7/3 12:45,0.10656,0,0.0432,0.02448,0.4464,0.216,0.03456,0,0.04752
2003/7/3 13:00,0.12384,0,0.0432,0.0216,0.1008,0.216,0.036,0,0.07344
2003/7/3 13:15,0.12672,0,0.0432,0.02304,0.2088,0.216,0,0,0.06624
2003/7/3 13:30,0.12096,0,0.0432,0.03024,0.45936,0.216,0.03024,0,0.0432
2003/7/3 13:45,0.12816,0,0.0432,0.02592,0.38016,0.216,0,0,0.0504
2003/7/3 14:00,0.12528,0,0.04608,0.0216,0,0.216,0.03312,0,0.08208
2003/7/3 14:15,0.11376,0,0.05472,0.02736,0.35568,0.216,0.03744,0,0.04464
2003/7/3 14:30,0.12096,0,0.0432,0.03168,0.45072,0.216,0,0,0.0432
2003/7/3 14:45,0.12384,0,0.04896,0.02448,0.25632,0.216,0.03168,0,0.05904
2003/7/3 15:00,0.12672,0,0.0432,0.0216,0.0216,0.216,0,0,0.08496
2003/7/3 15:15,0.1152,0,0.04752,0.04032,0.45216,0.216,0.03168,0,0.0288
2003/7/3 15:30,0.1152,0,0.3456,0.02592,0.4464,0.216,0.03744,0,-0.0072
2003/7/3 15:45,0.11376,0,0.6192,0.02448,0.5256,0.216,0,0,-0.04896
2003/7/3 16:00,0.11088,0,0.3456,0.0216,0.5616,0.216,0.036,0,-0.0576
2003/7/3 16:15,0.11232,0,0.324,0.02448,0.46368,0.216,0,0,-0.01728
2003/7/3 16:30,0.11088,0,0.33264,0.02592,0.54432,0.216,0.036,0,-0.02448
2003/7/3 16:45,0.11376,0,0.324,0.02592,0.5184,0.216,0,0,-0.01728
2003/7/3 17:00,0.11088,0,0.324,0.03168,0.49104,0.216,0.03168,0,-0.00144
2003/7/3 17:15,0.11664,0,0.32688,0.0288,0.4824,0.216,0.03456,0,-0.00864
2003/7/3 17:30,0.1152,0,0.3312,0.02592,0.47808,0.216,0,0,-0.00864
2003/7/3 17:45,0.10224,0,0.57456,0.0216,0.48672,0.216,0.03024,0,-0.02016
2003/7/3 18:00,0.25488,0,0.7416,0.02736,0.47088,0.216,0.03024,0,-0.02736
2003/7/3 18:15,0.30096,0,1.71072,0.02448,0.468,0.21024,0,0,-0.13536
2003/7/3 18:30,0.29808,0,1.21536,0.02592,0.468,0.20736,0.03024,0,-0.04896
2003/7/3 18:45,0.288,0,1.42272,0.036,0.4536,0.2088,0.03456,0,-0.0432
2003/7/3 19:00,0.28512,0,1.66608,3.5784,0.54432,0.20592,0.03456,0,-0.52272
2003/7/3 19:15,0.29952,0,1.5048,2.09088,0.49968,0.37728,0.03168,0,-0.3456
2003/7/3 19:30,0.28512,0,1.69632,0.34128,0.15408,0.44208,0.03456,0,-0.12816
2003/7/3 19:45,0.27648,0,1.78704,0.62496,0.12816,0.44208,0,0,-0.11664
2003/7/3 20:00,0.28656,0,1.8144,0.84096,0.46944,0.43632,0.03168,0,-0.21312
2003/7/3 20:15,0.288,0,2.29104,0.12816,0.4536,0.42336,0.03168,0,-0.20448
2003/7/3 20:30,0.29232,0,2.41488,1.69488,0.504,0.38736,0,0,-0.41904
2003/7/3 20:45,0.29088,0,2.6496,0.46512,0.17712,0.20736,0.03312,0,-0.19584
2003/7/3 21:00,0.28944,0,2.57904,0.2952,0.11664,0.20736,0.03456,0,-0.17136
2003/7/3 21:15,0.108,0,2.9448,0.34848,0.4752,0.2088,0,0,-0.288
2003/7/3 21:30,0.11088,0,2.69568,0.3816,0.45072,0.43488,0.03456,0,-0.28224
2003/7/3 21:45,0.108,0,3.25872,0.03168,0.45216,0.4464,0,0,-0.34128
2003/7/3 22:00,0.108,0,3.43152,0.02304,0.17712,0.44496,0.99792,0,-0.49536
2003/7/3 22:15,0.20448,0,2.5848,0.0216,0.10224,0.25632,0.036,0,-0.25632
2003/7/3 22:30,0.15264,0,1.90512,0.02448,0.46944,0.2088,0.42048,0,-0.216
2003/7/3 22:45,0.1296,0,1.84464,0.0288,0.45792,0.23184,0.45936,0,-0.17712
2003/7/3 23:00,0.13536,0,0.9144,0.03168,0.45936,0.33552,0,0,-0.05472
2003/7/3 23:15,0.1008,0,0.44064,0.02304,0.1224,0.252,0.03456,0,0.0216
2003/7/3 23:30,0.108,0,0.4032,0.0216,0.1512,0.216,0.036,0,0.04752
2003/7/3 23:45,0.108,0,0.2304,0.03024,0.46224,0.21744,0,0,0.036
2003/7/4 0:00,0.108,0,0.04608,0.02592,0.45072,0.216,0.03168,0,0.03888
2003/7/4 0:15,0.108,0,0.04464,0.03456,0.44784,0.216,0.03312,0,0.04176
2003/7/4 0:30,0.108,0,0.0432,0.0216,0,0.216,0,0,0.0864
2003/7/4 0:45,0.10656,0,0.0432,0.0288,0.28656,0.216,0.036,0,0.05472
2003/7/4 1:00,0.10368,0,0.0432,0.03168,0.45792,0.216,0.00576,0,0.04176
2003/7/4 1:15,0.108,0,0.0504,0.02592,0.45072,0.216,0.02736,0,0.03888
2003/7/4 1:30,0.108,0,0.04464,0.02304,0.17568,0.216,0.03456,0,0.0648
2003/7/4 1:45,0.108,0,0.0432,0.0216,0.09792,0.21456,0,0,0.07776
2003/7/4 2:00,0.10656,0,0.04464,0.02736,0.46368,0.216,0.036,0,0.036
2003/7/4 2:15,0.108,0,0.04752,0.02736,0.45072,0.216,0.03168,0,0.03888
2003/7/4 2:30,0.108,0,0.0432,0.0216,0.11808,0.216,0,0,0.07776
2003/7/4 2:45,0.1008,0,0.05328,0.02304,0.15552,0.21456,0.03456,0,0.06768
2003/7/4 3:00,0.108,0,0.0432,0.03024,0.4608,0.216,0,0,0.0432
2003/7/4 3:15,0.10224,0,0.04752,0.02736,0.45216,0.22032,0.036,0,0.03888
2003/7/4 3:30,0.10368,0,0.04752,0.0216,0.0792,0.21456,0.036,0,0.07776
2003/7/4 3:45,0.108,0,0.0432,0.02592,0.19296,0.216,0,0,0.06912
2003/7/4 4:00,0.10368,0,0.0504,0.02736,0.46368,0.21888,0.03312,0,0.03888
2003/7/4 4:15,0.108,0,0.0432,0.02592,0.45216,0.216,0,0,0.0432
2003/7/4 4:30,0.1008,0,0.05184,0.0216,0.02736,0.21456,0.03456,0,0.08064
2003/7/4 4:45,0.108,0,0.38592,0.47376,0.27648,0.216,0.03168,0,-0.06192
2003/7/4 5:00,0.108,0,0.50544,0.03024,0.45648,0.216,0,0,0.0072
2003/7/4 5:15,0.108,0,0.12528,0.02736,0.41904,0.21024,0.036,0,0.03312
2003/7/4 5:30,0.108,0,0.0432,0.0216,0,0.21168,0,0,0.0864
2003/7/4 5:45,0.10368,0,0.04752,0.0288,0.30528,0.2088,0.03744,0,0.05328
2003/7/4 6:00,0.108,0,0.12672,0.09936,0.44352,0.21024,0,0,0.03312
2003/7/4 6:15,0.144,0,0.31968,0.70416,0.48384,0.20736,0.036,0,-0.05328
2003/7/4 6:30,0.28224,0,0.34128,0.02736,0.46368,0.20592,0.03456,0,0.036
2003/7/4 6:45,0.15552,0,0.47664,0.20016,0.46656,0.21024,0,0,0.01728
2003/7/4 7:00,0.16416,0,0.54432,1.74096,0.46224,0.216,0.03888,0,0.03456
2003/7/4 7:15,0.144,0,0.35856,1.79568,0.46224,0.2088,0,0,0.0288
2003/7/4 7:30,0.144,0,0.54864,0.60336,0.44928,0.16848,0.036,0,0.072
2003/7/4 7:45,0.108,0,1.08576,0.0864,0.28656,0.12384,0,0,-0.0288
2003/7/4 8:00,0.108,0,0.70272,0.05472,0,0.1224,0.036,0,0.036
2003/7/4 8:15,0.108,0,0.23616,0.02736,0.44496,0.12528,0.03456,0,0.03888
2003/7/4 8:30,0.108,0,0.0432,0.02448,0.45648,0.12384,0,0,0.05616
2003/7/4 8:45,0.1008,0,0.0432,0.02448,0.5184,0.1224,0.03024,0,0.02016
2003/7/4 9:00,0.10512,0,0.04608,0.0216,0.5616,0.1224,0.036,0,0.00576
2003/7/4 9:15,0.108,0,0.0432,0.0216,0.55872,0.12384,0,0,0.0072
2003/7/4 9:30,0.10656,0,0.0432,0.03168,0.468,0.1224,0.036,0,0.04032
2003/7/4 9:45,0.108,0,0.0432,0.02448,0.53136,0.11952,0,0,0.0432
2003/7/4 10:00,0.10368,0,0.0504,0.02592,0.50256,0.1224,0.03456,0,0.04032
2003/7/4 10:15,0.108,0,0.04464,0.0288,0.48384,0.1224,0.03312,0,0.04032
2003/7/4 10:30,0.108,0,0.0432,0.03024,0.47664,0.12384,0,0,0.04608
2003/7/4 10:45,0.108,0,0.04464,0.02736,0.46512,0.12528,0.03456,0,0.04752
2003/7/4 11:00,0.108,0,0.04176,0.02448,0.46656,0.12528,0,0,0.05616
2003/7/4 11:15,0.10368,0,0.04752,0.02448,0.33408,0.12528,0.03744,0,0.06624
2003/7/4 11:30,0.10512,0,0.0432,0.0216,0,0.12384,0.04032,0,0.09216
2003/7/4 11:45,0.108,0,0.0432,0.02448,0.44928,0.12672,0,0,0.05472
2003/7/4 12:00,0.108,0,0.04608,0.02736,0.45936,0.12384,0.03312,0,0.04608
2003/7/4 12:15,0.108,0,0.0432,0.0288,0.4608,0.12384,0,0,0.05328
2003/7/4 12:30,0.1008,0,0.04176,0.02448,0.15264,0.12528,0.03312,0,0.08784
2003/7/4 12:45,0.108,0,0.0432,0.02592,0.14976,0.1224,0,0,0.08208
2003/7/4 13:00,0.1008,0,0.0432,0.02592,0.46512,0.12384,0.03312,0,0.05472
2003/7/4 13:15,0.108,0,0.04896,0.03168,0.45216,0.1224,0.03024,0,0.04608
2003/7/4 13:30,0.108,0,0.0432,0.03312,0.31104,0.12384,0,0,0.06336